Flag for Canada Weather past 2 weeks in Iqaluit, Nunavut Territory, Canada

Now
48 °F

Passing clouds.


Feels Like: 48 °F
Forecast: 41 / 63 °F
Wind: No wind

Location: Iqaluit

Current Time: Jul 30, 2014 at 8:19:25 AM

Latest Report: Jul 30, 2014 at 7:00 AM


Visibility: 30 mi

Pressure: 30.05 "Hg

Humidity: 82%

Dew point: 43 °F

Location of IqaluitLocation

Historic Weather in Iqaluit — Graph

°F

Iqaluit temperature yesterday

Maximum temperature yesterday: 57 °F (at 3:00 PM)
Minimum temperature yesterday: 41 °F (at 1:00 AM)
Average temperature yesterday: 49 °F

Past Weeks' High & Low Weather Summary

 TemperatureHumidityPressure
High68 °F (Jul 15, 5:00 PM)100% (Jul 21, 11:00 AM)30.16 "Hg (Jul 21, 11:00 AM)
Low41 °F (Jul 18, 2:00 AM)28% (Jul 15, 5:00 PM)29.34 "Hg (Jul 22, 11:51 AM)
Average49 °F77%29.79 "Hg
* Reported Jul 15 7:00 AM — Jul 30 7:00 AM, Iqaluit, Weather by CustomWeather, © 2014

Note: Actual official high and low records may vary slightly from our data, if they occured in-between our weather recording intervals... More about our weather records

Advertising

Iqaluit weather history for previous 24 hours

 ConditionsComfort  
Time TempWeatherWind HumidityBarometerVisibility
7:00 AM
Jul 30
48 °FPassing clouds.No wind82%30.05 "Hg30 mi
6:00 AM46 °FPassing clouds.No wind87%30.06 "Hg30 mi
5:00 AM46 °FScattered clouds.3 mph82%30.06 "Hg30 mi
4:00 AM45 °FSunny.5 mph81%30.06 "Hg30 mi
3:00 AM45 °FSunny.5 mph81%30.07 "Hg30 mi
2:00 AM46 °FClear.3 mph76%30.08 "Hg15 mi
1:00 AM46 °FPassing clouds.3 mph76%30.09 "Hg15 mi
12:00 AM48 °FPassing clouds.5 mph71%30.10 "Hg15 mi
11:00 PM
Jul 29
48 °FPassing clouds.2 mph76%30.11 "Hg15 mi
10:00 PM48 °FPassing clouds.No wind76%30.11 "Hg30 mi
9:00 PM52 °FPassing clouds.No wind67%30.12 "Hg30 mi
8:00 PM54 °FPassing clouds.2 mph63%30.12 "Hg30 mi
7:00 PM52 °FPassing clouds.5 mph67%30.11 "Hg30 mi
6:00 PM54 °FPassing clouds.5 mph67%30.11 "Hg30 mi
5:00 PM55 °FScattered clouds.5 mph63%30.12 "Hg30 mi
4:00 PM57 °FScattered clouds.5 mph63%30.11 "Hg30 mi
3:00 PM57 °FScattered clouds.3 mph63%30.12 "Hg30 mi
2:00 PM55 °FScattered clouds.6 mph63%30.12 "Hg30 mi
1:00 PM54 °FScattered clouds.3 mph72%30.13 "Hg30 mi
12:00 PM52 °FScattered clouds.5 mph72%30.14 "Hg30 mi
11:00 AM52 °FPassing clouds.6 mph77%30.15 "Hg30 mi
10:00 AM50 °FScattered clouds.3 mph76%30.16 "Hg30 mi
9:00 AM46 °FFog.5 mph82%30.16 "Hg30 mi
8:00 AM45 °FFog.5 mph87%30.15 "Hg30 mi
Weather by CustomWeather, © 2014

See weather overviewHow to use our weather pages